Location: Novokuznetsk
(53.7500°N, 87.1000°E)
Time: 22:13:32
(UTC+06:00)

ISS - Pass Details

Date: 22 May 2021
Orbit: 417 x 422 km, 51.6° (Epoch: 16 June)

Event Time Altitude Azimuth Distance (km) Brightness Sun altitude
Rises 22:18:50 0° 273° (W) 2,368 0.5 -12.1°
Reaches altitude 10° 22:20:58 10° 269° (W) 1,504 -0.6 -12.2°
Maximum altitude 22:24:15 51° 192° (SSW) 536 -3.6 -12.4°
Enters shadow 22:26:35 18° 120° (ESE) 1,130 -2.1 -12.6°
